Year,Month,Day,Hour,Minute,Value (Times are PST for temperature in C)
2018,04,26,00,00,12.40
2018,04,26,00,01,12.40
2018,04,26,00,02,12.40
2018,04,26,00,03,12.40
2018,04,26,00,04,12.40
2018,04,26,00,05,12.40
2018,04,26,00,06,12.40
2018,04,26,00,07,12.40
2018,04,26,00,08,12.40
2018,04,26,00,09,12.40
2018,04,26,00,10,12.40
2018,04,26,00,11,12.40
2018,04,26,00,12,12.30
2018,04,26,00,13,12.30
2018,04,26,00,14,12.30
2018,04,26,00,15,12.30
2018,04,26,00,16,12.20
2018,04,26,00,17,12.20
2018,04,26,00,18,12.20
2018,04,26,00,19,12.20
2018,04,26,00,20,12.10
2018,04,26,00,21,12.10
2018,04,26,00,22,12.10
2018,04,26,00,23,12.10
2018,04,26,00,24,12.10
2018,04,26,00,25,12.10
2018,04,26,00,26,12.00
2018,04,26,00,27,12.00
2018,04,26,00,28,12.00
2018,04,26,00,29,11.90
2018,04,26,00,30,11.90
2018,04,26,00,31,11.90
2018,04,26,00,32,11.90
2018,04,26,00,33,11.80
2018,04,26,00,34,11.80
2018,04,26,00,35,11.80
2018,04,26,00,36,11.80
2018,04,26,00,37,11.70
2018,04,26,00,38,11.70
2018,04,26,00,39,11.70
2018,04,26,00,40,11.70
2018,04,26,00,41,11.60
2018,04,26,00,42,11.60
2018,04,26,00,43,11.60
2018,04,26,00,44,11.60
2018,04,26,00,45,11.60
2018,04,26,00,46,11.60
2018,04,26,00,47,11.70
2018,04,26,00,48,11.70
2018,04,26,00,49,11.70
2018,04,26,00,50,11.70
2018,04,26,00,51,11.70
2018,04,26,00,52,11.80
2018,04,26,00,53,11.80
2018,04,26,00,54,11.80
2018,04,26,00,55,11.80
2018,04,26,00,56,11.80
2018,04,26,00,57,11.80
2018,04,26,00,58,11.80
2018,04,26,00,59,11.80
2018,04,26,01,00,11.80
2018,04,26,01,01,11.80
2018,04,26,01,02,11.70
2018,04,26,01,03,11.70
2018,04,26,01,04,11.70
2018,04,26,01,05,11.70
2018,04,26,01,06,11.70
2018,04,26,01,07,11.60
2018,04,26,01,08,11.60
2018,04,26,01,09,11.60
2018,04,26,01,10,11.60
2018,04,26,01,11,11.60
2018,04,26,01,12,11.60
2018,04,26,01,13,11.60
2018,04,26,01,14,11.60
2018,04,26,01,15,11.70
2018,04,26,01,16,11.70
2018,04,26,01,17,11.70
2018,04,26,01,18,11.70
2018,04,26,01,19,11.70
2018,04,26,01,20,11.70
2018,04,26,01,21,11.70
2018,04,26,01,22,11.70
2018,04,26,01,23,11.70
2018,04,26,01,24,11.80
2018,04,26,01,25,11.80
2018,04,26,01,26,11.80
2018,04,26,01,27,11.80
2018,04,26,01,28,11.90
2018,04,26,01,29,12.00
2018,04,26,01,30,12.00
2018,04,26,01,31,12.10
2018,04,26,01,32,12.10
2018,04,26,01,33,12.20
2018,04,26,01,34,12.30
2018,04,26,01,35,12.30
2018,04,26,01,36,12.40
2018,04,26,01,37,12.40
2018,04,26,01,38,12.40
2018,04,26,01,39,12.40
2018,04,26,01,40,12.40
2018,04,26,01,41,12.40
2018,04,26,01,42,12.40
2018,04,26,01,43,12.30
2018,04,26,01,44,12.30
2018,04,26,01,45,12.30
2018,04,26,01,46,12.20
2018,04,26,01,47,12.20
2018,04,26,01,48,12.10
2018,04,26,01,49,12.00
2018,04,26,01,50,12.00
2018,04,26,01,51,11.90
2018,04,26,01,52,11.90
2018,04,26,01,53,11.80
2018,04,26,01,54,11.80
2018,04,26,01,55,11.80
2018,04,26,01,56,11.80
2018,04,26,01,57,11.70
2018,04,26,01,58,11.70
2018,04,26,01,59,11.70
2018,04,26,02,00,11.60
2018,04,26,02,01,11.60
2018,04,26,02,02,11.60
2018,04,26,02,03,11.50
2018,04,26,02,04,11.50
2018,04,26,02,05,11.50
2018,04,26,02,06,11.50
2018,04,26,02,07,11.50
2018,04,26,02,08,11.40
2018,04,26,02,09,11.40
2018,04,26,02,10,11.40
2018,04,26,02,11,11.40
2018,04,26,02,12,11.30
2018,04,26,02,13,11.30
2018,04,26,02,14,11.30
2018,04,26,02,15,11.30
2018,04,26,02,16,11.20
2018,04,26,02,17,11.20
2018,04,26,02,18,11.20
2018,04,26,02,19,11.20
2018,04,26,02,20,11.20
2018,04,26,02,21,11.20
2018,04,26,02,22,11.20
2018,04,26,02,23,11.20
2018,04,26,02,24,11.20
2018,04,26,02,25,11.10
2018,04,26,02,26,11.10
2018,04,26,02,27,11.10
2018,04,26,02,28,11.10
2018,04,26,02,29,11.10
2018,04,26,02,30,11.10
2018,04,26,02,31,11.10
2018,04,26,02,32,11.10
2018,04,26,02,33,11.00
2018,04,26,02,34,11.00
2018,04,26,02,35,11.00
2018,04,26,02,36,11.00
2018,04,26,02,37,10.90
2018,04,26,02,38,10.90
2018,04,26,02,39,10.90
2018,04,26,02,40,10.90
2018,04,26,02,41,10.90
2018,04,26,02,42,10.90
2018,04,26,02,43,10.90
2018,04,26,02,44,10.90
2018,04,26,02,45,10.80
2018,04,26,02,46,10.80
2018,04,26,02,47,10.80
2018,04,26,02,48,10.80
2018,04,26,02,49,10.80
2018,04,26,02,50,10.70
2018,04,26,02,51,10.70
2018,04,26,02,52,10.70
2018,04,26,02,53,10.70
2018,04,26,02,54,10.70
2018,04,26,02,55,10.70
2018,04,26,02,56,10.70
2018,04,26,02,57,10.70
2018,04,26,02,58,10.70
2018,04,26,02,59,10.70
2018,04,26,03,00,10.60
2018,04,26,03,01,10.60
2018,04,26,03,02,10.60
2018,04,26,03,03,10.50
2018,04,26,03,04,10.40
2018,04,26,03,05,10.40
2018,04,26,03,06,10.30
2018,04,26,03,07,10.20
2018,04,26,03,08,10.20
2018,04,26,03,09,10.20
2018,04,26,03,10,10.10
2018,04,26,03,11,10.10
2018,04,26,03,12,10.10
2018,04,26,03,13,10.20
2018,04,26,03,14,10.20
2018,04,26,03,15,10.30
2018,04,26,03,16,10.30
2018,04,26,03,17,10.40
2018,04,26,03,18,10.40
2018,04,26,03,19,10.40
2018,04,26,03,20,10.40
2018,04,26,03,21,10.40
2018,04,26,03,22,10.40
2018,04,26,03,23,10.50
2018,04,26,03,24,10.50
2018,04,26,03,25,10.60
2018,04,26,03,26,10.60
2018,04,26,03,27,10.70
2018,04,26,03,28,10.70
2018,04,26,03,29,10.70
2018,04,26,03,30,10.70
2018,04,26,03,31,10.70
2018,04,26,03,32,10.70
2018,04,26,03,33,10.70
2018,04,26,03,34,10.60
2018,04,26,03,35,10.50
2018,04,26,03,36,10.50
2018,04,26,03,37,10.40
2018,04,26,03,38,10.40
2018,04,26,03,39,10.40
2018,04,26,03,40,10.50
2018,04,26,03,41,10.60
2018,04,26,03,42,10.80
2018,04,26,03,43,10.90
2018,04,26,03,44,11.10
2018,04,26,03,45,11.30
2018,04,26,03,46,11.40
2018,04,26,03,47,11.60
2018,04,26,03,48,11.70
2018,04,26,03,49,11.80
2018,04,26,03,50,11.90
2018,04,26,03,51,12.00
2018,04,26,03,52,12.10
2018,04,26,03,53,12.30
2018,04,26,03,54,12.40
2018,04,26,03,55,12.50
2018,04,26,03,56,12.60
2018,04,26,03,57,12.70
2018,04,26,03,58,12.70
2018,04,26,03,59,12.80
2018,04,26,04,00,12.80
2018,04,26,04,01,12.90
2018,04,26,04,02,12.90
2018,04,26,04,03,13.00
2018,04,26,05,04,13.60
2018,04,26,05,05,13.60
2018,04,26,05,06,13.60
2018,04,26,05,07,13.70
2018,04,26,05,08,13.70
2018,04,26,05,09,13.70
2018,04,26,05,10,13.70
2018,04,26,05,11,13.70
2018,04,26,05,12,13.70
2018,04,26,05,13,13.70
2018,04,26,05,14,13.70
2018,04,26,05,15,13.70
2018,04,26,05,16,13.70
2018,04,26,05,17,13.70
2018,04,26,05,18,13.70
2018,04,26,05,19,13.70
2018,04,26,05,20,13.70
2018,04,26,05,21,13.70
2018,04,26,05,22,13.70
2018,04,26,05,23,13.70
2018,04,26,05,24,13.70
2018,04,26,05,25,13.60
2018,04,26,05,26,13.60
2018,04,26,05,27,13.60
2018,04,26,05,28,13.60
2018,04,26,05,29,13.60
2018,04,26,05,30,13.60
2018,04,26,05,31,13.50
2018,04,26,05,32,13.50
2018,04,26,05,33,13.50
2018,04,26,05,34,13.50
2018,04,26,05,35,13.40
2018,04,26,05,36,13.40
2018,04,26,05,37,13.40
2018,04,26,05,38,13.40
2018,04,26,05,39,13.30
2018,04,26,05,40,13.30
2018,04,26,05,41,13.30
2018,04,26,05,42,13.30
2018,04,26,05,43,13.30
2018,04,26,05,44,13.30
2018,04,26,05,45,13.30
2018,04,26,05,46,13.30
2018,04,26,05,47,13.30
2018,04,26,05,48,13.30
2018,04,26,05,49,13.30
2018,04,26,05,50,13.30
2018,04,26,05,51,13.30
2018,04,26,05,52,13.30
2018,04,26,05,53,13.40
2018,04,26,05,54,13.40
2018,04,26,05,55,13.40
2018,04,26,05,56,13.50
2018,04,26,05,57,13.50
2018,04,26,05,58,13.50
2018,04,26,05,59,13.60
2018,04,26,06,00,13.60
2018,04,26,06,01,13.60
2018,04,26,06,02,13.60
2018,04,26,06,03,13.60
2018,04,26,06,04,13.60
2018,04,26,06,05,13.60
2018,04,26,06,06,13.60
2018,04,26,06,07,13.60
2018,04,26,06,08,13.60
2018,04,26,06,09,13.60
2018,04,26,06,10,13.50
2018,04,26,06,11,13.50
2018,04,26,06,12,13.50
2018,04,26,06,13,13.50
2018,04,26,06,14,13.50
2018,04,26,06,15,13.50
2018,04,26,06,16,13.40
2018,04,26,06,17,13.50
2018,04,26,06,18,13.40
2018,04,26,06,19,13.40
2018,04,26,06,20,13.40
2018,04,26,06,21,13.40
2018,04,26,06,22,13.40
2018,04,26,06,23,13.40
2018,04,26,06,24,13.40
2018,04,26,06,25,13.50
2018,04,26,06,26,13.50
2018,04,26,06,27,13.50
2018,04,26,06,28,13.60
2018,04,26,06,29,13.60
2018,04,26,06,30,13.70
2018,04,26,06,31,13.70
2018,04,26,06,32,13.70
2018,04,26,06,33,13.70
2018,04,26,06,34,13.80
2018,04,26,06,35,13.80
2018,04,26,06,36,13.80
2018,04,26,06,37,13.80
2018,04,26,06,38,13.80
2018,04,26,06,39,13.70
2018,04,26,06,40,13.70
2018,04,26,06,41,13.70
2018,04,26,06,42,13.70
2018,04,26,06,43,13.60
2018,04,26,06,44,13.60
2018,04,26,06,45,13.50
2018,04,26,06,46,13.40
2018,04,26,06,47,13.40
2018,04,26,06,48,13.30
2018,04,26,06,49,13.30
2018,04,26,06,50,13.20
2018,04,26,06,51,13.20
2018,04,26,06,52,13.10
2018,04,26,06,53,13.10
2018,04,26,06,54,13.10
2018,04,26,06,55,13.10
2018,04,26,06,56,13.10
2018,04,26,06,57,13.10
2018,04,26,06,58,13.10
2018,04,26,06,59,13.10
2018,04,26,07,00,13.10
2018,04,26,07,01,13.20
2018,04,26,07,02,13.20
2018,04,26,07,03,13.30
2018,04,26,07,04,13.30
2018,04,26,07,05,13.40
2018,04,26,07,06,13.50
2018,04,26,07,07,13.50
2018,04,26,07,08,13.60
2018,04,26,07,09,13.60
2018,04,26,07,10,13.60
2018,04,26,07,11,13.60
2018,04,26,07,12,13.60
2018,04,26,07,13,13.70
2018,04,26,07,14,13.70
2018,04,26,07,15,13.70
2018,04,26,07,16,13.70
2018,04,26,07,17,13.70
2018,04,26,07,18,13.80
2018,04,26,07,19,13.80
2018,04,26,07,20,13.80
2018,04,26,07,21,13.90
2018,04,26,07,22,13.90
2018,04,26,07,23,13.90
2018,04,26,07,24,14.00
2018,04,26,07,25,14.00
2018,04,26,07,26,14.10
2018,04,26,07,27,14.10
2018,04,26,07,28,14.10
2018,04,26,07,29,14.10
2018,04,26,07,30,14.20
2018,04,26,07,31,14.20
2018,04,26,07,32,14.20
2018,04,26,07,33,14.20
2018,04,26,07,34,14.20
2018,04,26,07,35,14.20
2018,04,26,07,36,14.20
2018,04,26,07,37,14.20
2018,04,26,07,38,14.20
2018,04,26,07,39,14.20
2018,04,26,07,40,14.20
2018,04,26,07,41,14.20
2018,04,26,07,42,14.20
2018,04,26,07,43,14.20
2018,04,26,07,44,14.10
2018,04,26,07,45,14.10
2018,04,26,07,46,14.10
2018,04,26,07,47,14.10
2018,04,26,07,48,14.10
2018,04,26,07,49,14.10
2018,04,26,07,50,14.00
2018,04,26,07,51,14.10
2018,04,26,07,52,14.10
2018,04,26,07,53,14.10
2018,04,26,07,54,14.10
2018,04,26,07,55,14.20
2018,04,26,07,56,14.20
2018,04,26,07,57,14.20
2018,04,26,07,58,14.30
2018,04,26,07,59,14.40
2018,04,26,08,00,14.40
2018,04,26,08,01,14.50
2018,04,26,08,02,14.50
2018,04,26,08,03,14.60
2018,04,26,08,04,14.60
2018,04,26,08,05,14.60
2018,04,26,08,06,14.70
2018,04,26,08,07,14.70
2018,04,26,08,08,14.70
2018,04,26,08,09,14.70
2018,04,26,08,10,14.70
2018,04,26,08,11,14.80
2018,04,26,08,12,14.80
2018,04,26,08,13,14.80
2018,04,26,08,14,14.90
2018,04,26,08,15,14.90
2018,04,26,08,16,14.90
2018,04,26,08,17,14.90
2018,04,26,08,18,15.00
2018,04,26,08,19,15.00
2018,04,26,08,20,15.00
2018,04,26,08,21,15.10
2018,04,26,08,22,15.10
2018,04,26,08,23,15.10
2018,04,26,08,24,15.10
2018,04,26,08,25,15.10
2018,04,26,08,26,15.10
2018,04,26,08,27,15.10
2018,04,26,08,28,15.10
2018,04,26,08,29,15.10
2018,04,26,08,30,15.10
2018,04,26,08,31,15.10
2018,04,26,08,32,15.10
2018,04,26,08,33,15.10
2018,04,26,08,34,15.10
2018,04,26,08,35,15.10
2018,04,26,08,36,15.10
2018,04,26,08,37,15.10
2018,04,26,08,38,15.10
2018,04,26,08,39,15.10
2018,04,26,08,40,15.10
2018,04,26,08,41,15.10
2018,04,26,08,42,15.10
2018,04,26,08,43,15.10
2018,04,26,08,44,15.10
2018,04,26,08,45,15.20
2018,04,26,08,46,15.20
2018,04,26,08,47,15.20
2018,04,26,08,48,15.20
2018,04,26,08,49,15.30
2018,04,26,08,50,15.30
2018,04,26,08,51,15.30
2018,04,26,08,52,15.30
2018,04,26,08,53,15.30
2018,04,26,08,54,15.40
2018,04,26,08,55,15.40
2018,04,26,08,56,15.40
2018,04,26,08,57,15.40
2018,04,26,08,58,15.40
2018,04,26,08,59,15.40
2018,04,26,09,00,15.40
2018,04,26,09,01,15.40
2018,04,26,09,02,15.50
2018,04,26,09,03,15.50
2018,04,26,09,04,15.60
2018,04,26,09,05,15.60
2018,04,26,09,06,15.60
2018,04,26,09,07,15.70
2018,04,26,09,08,15.70
2018,04,26,09,09,15.70
2018,04,26,09,10,15.70
2018,04,26,09,11,15.80
2018,04,26,09,12,15.80
2018,04,26,09,13,15.80
2018,04,26,09,14,15.90
2018,04,26,09,15,15.90
2018,04,26,09,16,16.00
2018,04,26,09,17,16.00
2018,04,26,09,18,16.10
2018,04,26,09,19,16.20
2018,04,26,09,20,16.20
2018,04,26,09,21,16.30
2018,04,26,09,22,16.30
2018,04,26,09,23,16.30
2018,04,26,09,24,16.40
2018,04,26,09,25,16.40
2018,04,26,09,26,16.40
2018,04,26,09,27,16.40
2018,04,26,09,28,16.40
2018,04,26,09,29,16.50
2018,04,26,09,30,16.50
2018,04,26,09,31,16.50
2018,04,26,09,32,16.60
2018,04,26,09,33,16.60
2018,04,26,09,34,16.60
2018,04,26,09,35,16.60
2018,04,26,09,36,16.70
2018,04,26,09,37,16.70
2018,04,26,09,38,16.70
2018,04,26,09,39,16.70
2018,04,26,09,40,16.80
2018,04,26,09,41,16.80
2018,04,26,09,42,16.80
2018,04,26,09,43,16.80
2018,04,26,09,44,16.80
2018,04,26,09,45,16.80
2018,04,26,09,46,16.80
2018,04,26,09,47,16.80
2018,04,26,09,48,16.80
2018,04,26,09,49,16.80
2018,04,26,09,50,16.90
2018,04,26,09,51,16.90
2018,04,26,09,52,17.00
2018,04,26,09,53,17.00
2018,04,26,09,54,17.10
2018,04,26,09,55,17.10
2018,04,26,09,56,17.20
2018,04,26,09,57,17.20
2018,04,26,09,58,17.20
2018,04,26,09,59,17.20
2018,04,26,10,00,17.20
2018,04,26,10,01,17.20
2018,04,26,10,02,17.20
2018,04,26,10,03,17.20
2018,04,26,10,04,17.20
2018,04,26,10,05,17.20
2018,04,26,10,06,17.20
2018,04,26,10,07,17.20
2018,04,26,10,08,17.20
2018,04,26,10,09,17.20
2018,04,26,10,10,17.20
2018,04,26,10,11,17.30
2018,04,26,10,12,17.30
2018,04,26,10,13,17.30
2018,04,26,10,14,17.30
2018,04,26,10,15,17.30
2018,04,26,10,16,17.40
2018,04,26,10,17,17.40
2018,04,26,10,18,17.40
2018,04,26,10,19,17.40
2018,04,26,10,20,17.40
2018,04,26,10,21,17.40
2018,04,26,10,22,17.40
2018,04,26,10,23,17.40
2018,04,26,10,24,17.40
2018,04,26,10,25,17.40
2018,04,26,10,26,17.50
2018,04,26,10,27,17.50
2018,04,26,10,28,17.50
2018,04,26,10,29,17.60
2018,04,26,10,30,17.60
2018,04,26,10,31,17.70
2018,04,26,10,32,17.70
2018,04,26,10,33,17.70
2018,04,26,10,34,17.70
2018,04,26,10,35,17.70
2018,04,26,10,36,17.70
2018,04,26,10,37,17.70
2018,04,26,10,38,17.80
2018,04,26,10,39,17.80
2018,04,26,10,40,17.80
2018,04,26,10,41,17.90
2018,04,26,10,42,17.90
2018,04,26,10,43,18.00
2018,04,26,10,44,18.00
2018,04,26,10,45,18.10
2018,04,26,10,46,18.10
2018,04,26,10,47,18.20
2018,04,26,10,48,18.30
2018,04,26,10,49,18.30
2018,04,26,10,50,18.30
2018,04,26,10,51,18.40
2018,04,26,10,52,18.40
2018,04,26,10,53,18.40
2018,04,26,10,54,18.50
2018,04,26,10,55,18.50
2018,04,26,10,56,18.50
2018,04,26,10,57,18.60
2018,04,26,10,58,18.60
2018,04,26,10,59,18.60
2018,04,26,11,00,18.60
2018,04,26,11,01,18.60
2018,04,26,11,02,18.60
2018,04,26,11,03,18.70
2018,04,26,11,04,18.70
2018,04,26,11,05,18.70
2018,04,26,11,06,18.80
2018,04,26,11,07,18.80
2018,04,26,11,08,18.80
2018,04,26,11,09,18.90
2018,04,26,11,10,18.90
2018,04,26,11,11,18.90
2018,04,26,11,12,18.90
2018,04,26,11,13,18.90
2018,04,26,11,14,18.90
2018,04,26,11,15,18.80
2018,04,26,11,16,18.80
2018,04,26,11,17,18.80
2018,04,26,11,18,18.70
2018,04,26,11,19,18.70
2018,04,26,11,20,18.70
2018,04,26,11,21,18.70
2018,04,26,11,22,18.70
2018,04,26,11,23,18.80
2018,04,26,11,24,18.80
2018,04,26,11,25,18.90
2018,04,26,11,26,18.90
2018,04,26,11,27,18.90
2018,04,26,11,28,18.90
2018,04,26,11,29,18.90
2018,04,26,11,30,18.80
2018,04,26,11,31,18.80
2018,04,26,11,32,18.80
2018,04,26,11,33,18.80
2018,04,26,11,34,18.90
2018,04,26,11,35,18.90
2018,04,26,11,36,18.90
2018,04,26,11,37,19.00
2018,04,26,11,38,19.10
2018,04,26,11,39,19.20
2018,04,26,11,40,19.30
2018,04,26,11,41,19.40
2018,04,26,11,42,19.60
2018,04,26,11,43,19.70
2018,04,26,11,44,19.80
2018,04,26,11,45,19.80
2018,04,26,11,46,19.90
2018,04,26,11,47,19.90
2018,04,26,11,48,19.90
2018,04,26,11,49,19.90
2018,04,26,11,50,19.90
2018,04,26,11,51,19.90
2018,04,26,11,52,19.90
2018,04,26,11,53,19.90
2018,04,26,11,54,19.80
2018,04,26,11,55,19.70
2018,04,26,11,56,19.60
2018,04,26,11,57,19.60
2018,04,26,11,58,19.60
2018,04,26,11,59,19.60
2018,04,26,12,00,19.60
2018,04,26,12,01,19.60
2018,04,26,12,02,19.70
2018,04,26,12,03,19.70
2018,04,26,12,04,19.70
2018,04,26,12,05,19.70
2018,04,26,12,06,19.80
2018,04,26,12,07,19.70
2018,04,26,12,08,19.70
2018,04,26,12,09,19.70
2018,04,26,12,10,19.60
2018,04,26,12,11,19.60
2018,04,26,12,12,19.70
2018,04,26,12,13,19.70
2018,04,26,12,14,19.80
2018,04,26,12,15,19.90
2018,04,26,12,16,20.00
2018,04,26,12,17,20.00
2018,04,26,12,18,20.10
2018,04,26,12,19,20.10
2018,04,26,12,20,20.20
2018,04,26,12,21,20.30
2018,04,26,12,22,20.40
2018,04,26,12,23,20.50
2018,04,26,12,24,20.50
2018,04,26,12,25,20.50
2018,04,26,12,26,20.50
2018,04,26,12,27,20.50
2018,04,26,12,28,20.50
2018,04,26,12,29,20.50
2018,04,26,12,30,20.40
2018,04,26,12,31,20.40
2018,04,26,12,32,20.40
2018,04,26,12,33,20.40
2018,04,26,12,34,20.40
2018,04,26,12,35,20.40
2018,04,26,12,36,20.40
2018,04,26,12,37,20.40
2018,04,26,12,38,20.40
2018,04,26,12,39,20.40
2018,04,26,12,40,20.50
2018,04,26,12,41,20.50
2018,04,26,12,42,20.50
2018,04,26,12,43,20.60
2018,04,26,12,44,20.60
2018,04,26,12,45,20.60
2018,04,26,12,46,20.60
2018,04,26,12,47,20.60
2018,04,26,12,48,20.50
2018,04,26,12,49,20.40
2018,04,26,12,50,20.40
2018,04,26,12,51,20.50
2018,04,26,12,52,20.50
2018,04,26,12,53,20.60
2018,04,26,12,54,20.60
2018,04,26,12,55,20.70
2018,04,26,12,56,20.70
2018,04,26,12,57,20.60
2018,04,26,12,58,20.60
2018,04,26,12,59,20.60
2018,04,26,13,00,20.60
2018,04,26,13,01,20.60
2018,04,26,13,02,20.60
2018,04,26,13,03,20.60
2018,04,26,13,04,20.70
2018,04,26,13,05,20.70
2018,04,26,13,06,20.80
2018,04,26,13,07,20.90
2018,04,26,13,08,21.00
2018,04,26,13,09,21.10
2018,04,26,13,10,21.10
2018,04,26,13,11,21.20
2018,04,26,13,12,21.20
2018,04,26,13,13,21.30
2018,04,26,13,14,21.40
2018,04,26,13,15,21.50
2018,04,26,13,16,21.60
2018,04,26,13,17,21.50
2018,04,26,13,18,21.50
2018,04,26,13,19,21.50
2018,04,26,13,20,21.60
2018,04,26,13,21,21.70
2018,04,26,13,22,21.80
2018,04,26,13,23,21.80
2018,04,26,13,24,21.90
2018,04,26,13,25,21.90
2018,04,26,13,26,21.90
2018,04,26,13,27,21.90
2018,04,26,13,28,21.80
2018,04,26,13,29,21.70
2018,04,26,13,30,21.60
2018,04,26,13,31,21.70
2018,04,26,13,32,21.70
2018,04,26,13,33,21.70
2018,04,26,13,34,21.80
2018,04,26,13,35,21.90
2018,04,26,13,36,21.90
2018,04,26,13,37,22.00
2018,04,26,13,38,22.00
2018,04,26,13,39,22.00
2018,04,26,13,40,22.00
2018,04,26,13,41,22.00
2018,04,26,13,42,22.00
2018,04,26,13,43,22.00
2018,04,26,13,44,21.90
2018,04,26,13,45,21.90
2018,04,26,13,46,21.90
2018,04,26,13,47,21.90
2018,04,26,13,48,22.00
2018,04,26,13,49,22.00
2018,04,26,13,50,22.10
2018,04,26,13,51,22.20
2018,04,26,13,52,22.20
2018,04,26,13,53,22.30
2018,04,26,13,54,22.40
2018,04,26,13,55,22.40
2018,04,26,13,56,22.40
2018,04,26,13,57,22.40
2018,04,26,13,58,22.50
2018,04,26,13,59,22.50
2018,04,26,14,00,22.50
2018,04,26,14,01,22.50
2018,04,26,14,02,22.50
2018,04,26,14,03,22.40
2018,04,26,14,04,22.40
2018,04,26,14,05,22.30
2018,04,26,14,06,22.20
2018,04,26,14,07,22.10
2018,04,26,14,08,22.00
2018,04,26,14,09,21.90
2018,04,26,14,10,21.90
2018,04,26,14,11,22.00
2018,04,26,14,12,22.00
2018,04,26,14,13,22.10
2018,04,26,14,14,22.10
2018,04,26,14,15,22.10
2018,04,26,14,16,22.10
2018,04,26,14,17,22.10
2018,04,26,14,18,22.10
2018,04,26,14,19,22.20
2018,04,26,14,20,22.30
2018,04,26,14,21,22.40
2018,04,26,14,22,22.40
2018,04,26,14,23,22.40
2018,04,26,14,24,22.40
2018,04,26,14,25,22.50
2018,04,26,14,26,22.60
2018,04,26,14,27,22.60
2018,04,26,14,28,22.60
2018,04,26,14,29,22.60
2018,04,26,14,30,22.50
2018,04,26,14,31,22.40
2018,04,26,14,32,22.40
2018,04,26,14,33,22.40
2018,04,26,14,34,22.40
2018,04,26,14,35,22.50
2018,04,26,14,36,22.50
2018,04,26,14,37,22.60
2018,04,26,14,38,22.50
2018,04,26,14,39,22.50
2018,04,26,14,40,22.50
2018,04,26,14,41,22.60
2018,04,26,14,42,22.50
2018,04,26,14,43,22.40
2018,04,26,14,44,22.30
2018,04,26,14,45,22.30
2018,04,26,14,46,22.30
2018,04,26,14,47,22.30
2018,04,26,14,48,22.30
2018,04,26,14,49,22.30
2018,04,26,14,50,22.40
2018,04,26,14,51,22.40
2018,04,26,14,52,22.40
2018,04,26,14,53,22.40
2018,04,26,14,54,22.50
2018,04,26,14,55,22.50
2018,04,26,14,56,22.40
2018,04,26,14,57,22.50
2018,04,26,14,58,22.50
2018,04,26,14,59,22.50
2018,04,26,15,00,22.40
2018,04,26,15,01,22.40
2018,04,26,15,02,22.40
2018,04,26,15,03,22.40
2018,04,26,15,04,22.40
2018,04,26,15,05,22.50
2018,04,26,15,06,22.50
2018,04,26,15,07,22.60
2018,04,26,15,08,22.60
2018,04,26,15,09,22.70
2018,04,26,15,10,22.70
2018,04,26,15,11,22.70
2018,04,26,15,12,22.80
2018,04,26,15,13,22.80
2018,04,26,15,14,22.70
2018,04,26,15,15,22.70
2018,04,26,15,16,22.70
2018,04,26,15,17,22.70
2018,04,26,15,18,22.70
2018,04,26,15,19,22.70
2018,04,26,15,20,22.70
2018,04,26,15,21,22.70
2018,04,26,15,22,22.70
2018,04,26,15,23,22.70
2018,04,26,15,24,22.80
2018,04,26,15,25,22.80
2018,04,26,15,26,22.90
2018,04,26,15,27,22.90
2018,04,26,15,28,23.00
2018,04,26,15,29,23.00
2018,04,26,15,30,23.10
2018,04,26,15,31,23.10
2018,04,26,15,32,23.20
2018,04,26,15,33,23.30
2018,04,26,15,34,23.40
2018,04,26,15,35,23.40
2018,04,26,15,36,23.40
2018,04,26,15,37,23.50
2018,04,26,15,38,23.50
2018,04,26,15,39,23.60
2018,04,26,15,40,23.60
2018,04,26,15,41,23.60
2018,04,26,15,42,23.60
2018,04,26,15,43,23.70
2018,04,26,15,44,23.70
2018,04,26,15,45,23.60
2018,04,26,15,46,23.60
2018,04,26,15,47,23.60
2018,04,26,15,48,23.60
2018,04,26,15,49,23.50
2018,04,26,15,50,23.40
2018,04,26,15,51,23.40
2018,04,26,15,52,23.30
2018,04,26,15,53,23.20
2018,04,26,15,54,23.20
2018,04,26,15,55,23.20
2018,04,26,15,56,23.20
2018,04,26,15,57,23.10
2018,04,26,15,58,23.10
2018,04,26,15,59,23.20
2018,04,26,16,00,23.20
2018,04,26,16,01,23.20
2018,04,26,16,02,23.30
2018,04,26,16,03,23.40
2018,04,26,16,04,23.40
2018,04,26,16,05,23.50
2018,04,26,16,06,23.50
2018,04,26,16,07,23.60
2018,04,26,16,08,23.60
2018,04,26,16,09,23.70
2018,04,26,16,10,23.70
2018,04,26,16,11,23.70
2018,04,26,16,12,23.70
2018,04,26,16,13,23.70
2018,04,26,16,14,23.60
2018,04,26,16,15,23.60
2018,04,26,16,16,23.60
2018,04,26,16,17,23.60
2018,04,26,16,18,23.60
2018,04,26,16,19,23.60
2018,04,26,16,20,23.60
2018,04,26,16,21,23.50
2018,04,26,16,22,23.50
2018,04,26,16,23,23.50
2018,04,26,16,24,23.50
2018,04,26,16,25,23.40
2018,04,26,16,26,23.40
2018,04,26,16,27,23.40
2018,04,26,16,28,23.30
2018,04,26,16,29,23.30
2018,04,26,16,30,23.30
2018,04,26,16,31,23.30
2018,04,26,16,32,23.20
2018,04,26,16,33,23.20
2018,04,26,16,34,23.20
2018,04,26,16,35,23.20
2018,04,26,16,36,23.20
2018,04,26,16,37,23.30
2018,04,26,16,38,23.30
2018,04,26,16,39,23.30
2018,04,26,16,40,23.30
2018,04,26,16,41,23.40
2018,04,26,16,42,23.50
2018,04,26,16,43,23.60
2018,04,26,16,44,23.60
2018,04,26,16,45,23.60
2018,04,26,16,46,23.60
2018,04,26,16,47,23.60
2018,04,26,16,48,23.70
2018,04,26,16,49,23.70
2018,04,26,16,50,23.70
2018,04,26,16,51,23.70
2018,04,26,16,52,23.80
2018,04,26,16,53,23.80
2018,04,26,16,54,23.90
2018,04,26,16,55,23.90
2018,04,26,16,56,23.90
2018,04,26,16,57,23.90
2018,04,26,16,58,23.90
2018,04,26,16,59,24.00
2018,04,26,17,00,24.00
2018,04,26,17,01,24.00
2018,04,26,17,02,24.00
2018,04,26,17,03,24.10
2018,04,26,17,04,24.10
2018,04,26,17,05,24.10
2018,04,26,17,06,24.10
2018,04,26,17,07,24.00
2018,04,26,17,08,24.00
2018,04,26,17,09,23.90
2018,04,26,17,10,23.90
2018,04,26,17,11,23.90
2018,04,26,17,12,23.90
2018,04,26,17,13,23.90
2018,04,26,17,14,23.90
2018,04,26,17,15,23.90
2018,04,26,17,16,23.90
2018,04,26,17,17,23.90
2018,04,26,17,18,23.90
2018,04,26,17,19,23.90
2018,04,26,17,20,23.90
2018,04,26,17,21,23.90
2018,04,26,17,22,23.90
2018,04,26,17,23,23.90
2018,04,26,17,24,23.80
2018,04,26,17,25,23.80
2018,04,26,17,26,23.70
2018,04,26,17,27,23.70
2018,04,26,17,28,23.70
2018,04,26,17,29,23.80
2018,04,26,17,30,23.80
2018,04,26,17,31,23.80
2018,04,26,17,32,23.70
2018,04,26,17,33,23.70
2018,04,26,17,34,23.70
2018,04,26,17,35,23.70
2018,04,26,17,36,23.70
2018,04,26,17,37,23.70
2018,04,26,17,38,23.70
2018,04,26,17,39,23.60
2018,04,26,17,40,23.60
2018,04,26,17,41,23.60
2018,04,26,17,42,23.70
2018,04,26,17,43,23.70
2018,04,26,17,44,23.70
2018,04,26,17,45,23.70
2018,04,26,17,46,23.70
2018,04,26,17,47,23.70
2018,04,26,17,48,23.70
2018,04,26,17,49,23.80
2018,04,26,17,50,23.80
2018,04,26,17,51,23.80
2018,04,26,17,52,23.80
2018,04,26,17,53,23.70
2018,04,26,17,54,23.70
2018,04,26,17,55,23.70
2018,04,26,17,56,23.70
2018,04,26,17,57,23.70
2018,04,26,17,58,23.70
2018,04,26,17,59,23.80
2018,04,26,18,00,23.80
2018,04,26,18,01,23.80
2018,04,26,18,02,23.80
2018,04,26,18,03,23.80
2018,04,26,18,04,23.80
2018,04,26,18,05,23.90
2018,04,26,18,06,23.90
2018,04,26,18,07,23.90
2018,04,26,18,08,23.90
2018,04,26,18,09,23.90
2018,04,26,18,10,23.90
2018,04,26,18,11,23.90
2018,04,26,18,12,23.90
2018,04,26,18,13,23.90
2018,04,26,18,14,23.90
2018,04,26,18,15,23.90
2018,04,26,18,16,23.90
2018,04,26,18,17,23.90
2018,04,26,18,18,23.90
2018,04,26,18,19,23.90